Location: Alpha Ridge Park
(39.3209°N, 76.9128°W)
Time: 19:29:59
(UTC-04:00)

S-56A Canister/Altair - Pass Details

Date: 26 May 2019
Orbit: 633 x 2499 km, 38.9° (Epoch: 17 June)

Event Time Altitude Azimuth Distance (km) Brightness Sun altitude
Rises 06:39:47 0° 284° (WNW) 4,217 10.8 8.6°
Reaches altitude 10° 06:42:19 10° 279° (W) 3,465 10.4 9.1°
Maximum altitude 06:51:12 56° 205° (SSW) 2,111 9.7 10.7°
Drops below altitude 10° 07:04:02 10° 133° (SE) 4,891 12.1 13.1°
Sets 07:08:21 0° 129° (SE) 6,044 12.6 13.9°
